Regional Weather Roundup
Issued by NWS Sterling, VA

Home | Current Version | Previous Version | Graphics & Text | Print | Product List | Glossary On
Versions: 1 2 3 4 5 6 7 8 9 10 11 12 13 14 15 16 17 18 19 20 21 22 23 24 25 26 27
000
ASUS41 KLWX 200511
RWRLWX

REGIONAL WEATHER ROUNDUP
NATIONAL WEATHER SERVICE BALTIMORE MD/WASHINGTON DC
100 AM EDT SUN MAY 20 2018

Note: "FAIR" indicates few or no clouds below 12,000 feet
with no significant weather and/or obstructions to visibility.
 TC=TEMPERATURE CELSIUS

 * =Non NWS site. Station does not report precipitation (e.g. rain,
    snow, etc.), thunder, or fog.

DCZ001-MDZ009-015-VAZ040>042-051-053>054-200600-
WASHINGTON METRO

CITY           SKY/WX    TMP DP  RH WIND       PRES   REMARKS
WASHINGTON NAT CLOUDY    69  66  90 S9        30.03F
DULLES         CLOUDY    67  67 100 SW5       30.03S
ANDREWS AFB    MOCLDY    70  69  95 S12       30.03F
FT BELVOIR     CLOUDY    71  69  93 S5        30.03F
QUANTICO       MOCLDY    72  70  93 S12       30.04F
COLLEGE PARK*  CLOUDY    71  68  90 CALM      30.02F
LEESBURG*      CLOUDY    61  61 100 S9        30.03F
MANASSAS*      CLOUDY    66  66 100 CALM      30.03F
GAITHERSBURG*  CLOUDY    69 N/A N/A S6        30.04F HAZE

$$

MDZ006>007-011-014-200600-
BALTIMORE METRO

CITY           SKY/WX    TMP DP  RH WIND       PRES   REMARKS
BWI AIRPORT    CLOUDY    70  69  97 S6        30.02F
MD SCIENCE CTR   N/A     68  68 100 MISG      30.03F
MARTIN STATE   CLOUDY    70  70 100 SE6       30.04F
ANNAPOLIS      CLOUDY    70  68  93 S8        30.03F
FORT MEADE*    CLOUDY    68  68 100 S5        30.05F

$$

MDZ012-015-019>023-200600-
MARYLAND EASTERN SHORE

CITY           SKY/WX    TMP DP  RH WIND       PRES   REMARKS
OCEAN CITY     MOCLDY    67  66  97 SW8       30.11F
SALISBURY      CLOUDY    70  70 100 S9        30.09S
BAY BRIDGE AP* CLOUDY    70  68  94 S9        30.04F
CAMBRIDGE*     CLOUDY    72  70  94 VRB7G16   30.07F
EASTON*        MOCLDY    72  69  90 SW10G20   30.09F

$$

MDZ017>025-200600-
SOUTHERN MARYLAND

CITY           SKY/WX    TMP DP  RH WIND       PRES   REMARKS
PATUXENT RIVER CLOUDY   N/A N/A N/A S13G22    30.06F
ST INIGOES     NOT AVBL
LEONARDTOWN*   CLOUDY    70  68  94 S12G17    30.07F

$$

MDZ003>005-200600-
NORTH CENTRAL MARYLAND

CITY           SKY/WX    TMP DP  RH WIND       PRES   REMARKS
FREDERICK*     CLOUDY    63  63 100 CALM      30.05F FOG
HAGERSTOWN APT CLOUDY    59  57  93 NW3       30.02S FOG
WESTMINSTER*   NOT AVBL

$$

MDZ501>502-200600-
WESTERN MARYLAND

CITY           SKY/WX    TMP DP  RH WIND       PRES   REMARKS
OAKLAND*       MOCLDY    59  59 100 SW8       30.07F
CUMBERLAND*    CLOUDY    59  59 100 CALM      30.07S

$$

VAZ025>031-200600-
SHENANDOAH VALLEY

CITY           SKY/WX    TMP DP  RH WIND       PRES   REMARKS
WINCHESTER*    FAIR      63  61  94 CALM      30.03F
FRONT ROYAL*   FAIR     N/A N/A N/A S3        30.01F
LURAY*         MOCLDY    68  66  94 SW6       30.03F
NEW MARKET*    MOCLDY   N/A N/A N/A SW6       30.02S
STAUNTON*      FAIR      64  63  98 SW3       30.07F
WAYNESBORO*    FAIR      65  65  99 SW6       30.07F

$$

WVZ021-048>050-054>055-200600-
EASTERN WEST VIRGINIA PANHANDLE

CITY           SKY/WX    TMP DP  RH WIND       PRES   REMARKS
MARTINSBURG    FOG       60  60 100 CALM      30.00F VSB 1
PETERSBURG*    MOCLDY    60  59  97 NW3       30.03S

$$

VAZ036>039-050-200600-
CENTRAL FOOTHILLS

CITY           SKY/WX    TMP DP  RH WIND       PRES   REMARKS
CHARLOTTESVILL LGT RAIN  67  65  93 VRB3      30.04S
CULPEPER*      CLOUDY    67  65  94 CALM      30.04F
ORANGE*        LGT RAIN  68  68 100 S7        30.03F
GORDONSVILLE*  CLOUDY    69  69 100 SW5       30.03F
WARRENTON*     CLOUDY    67  64  89 CALM      30.02F

$$

VAZ055>057-200600-
NORTH AND CENTRAL PIEDMONT

CITY           SKY/WX    TMP DP  RH WIND       PRES   REMARKS
FREDERICKSBRG* CLOUDY    72  72 100 S10       30.04F
STAFFORD*      CLOUDY    71  71 100 S5        30.07F

$$

NCZ024-NYZ072-PAZ021-071-VAZ022-071-200600-
OTHER REGIONAL OBSERVATIONS

CITY           SKY/WX    TMP DP  RH WIND       PRES   REMARKS
NEW YORK CITY  CLOUDY    56  55  97 CALM      30.07F FOG
PHILADELPHIA   CLOUDY    69  67  93 S12       30.03F
PITTSBURGH     MOCLDY    68  65  90 SW10      29.97S
ROANOKE        MOCLDY    69  67  93 CALM      30.10F
RICHMOND       CLOUDY    72  68  87 S16       30.08F
RALEIGH        MOCLDY    70  69  97 S8        30.13F

$$

ANZ530>537-200600-
MARINE OBSERVATIONS

STATION/POSITION TIME  TEMP    WIND        PRES
                       AIR SEA DIR/SP/G
                 (UTC) (F)     (DEG/KT/KT) (MB)
THOMAS PT LIGHT  0500   67 65  170/ 17/ 17 1017.9F
BALT KEY BRIDGE  0448   70     180/ 12/ 13 1016.6F
COVE POINT       0448   72     210/ 16/ 20 1018.5F
LEWISETTA        0448   73 71  230/ 14/ 18 1018.6F
SOLOMONS ISLAND  0448   72 67  200/ 17/ 20 1017.5F
PINEY POINT      0448          220/ 11/ 14   N/A

$$





USA.gov is the U.S. government's official web portal to all federal, state and local government web resources and services.